owner,sensor,date,latitude,longitude,vertical_datum,wind_speed,wind_to_direction,wind_speed_of_gust,qcFlag 
TCOON,ioos:station:TCOON:524:1,2019-11-01T00:18:00Z,29.8672,-93.9310,0.0,5.1,349.0,6.1,'11111222,11111222,11111222' 
TCOON,ioos:station:TCOON:524:1,2019-11-01T01:18:00Z,29.8672,-93.9310,0.0,3.4,340.0,4.4,'11111222,11111222,11111222' 
TCOON,ioos:station:TCOON:524:1,2019-11-01T02:18:00Z,29.8672,-93.9310,0.0,3.4,335.0,4.5,'11111222,11111222,11111222' 
TCOON,ioos:station:TCOON:524:1,2019-11-01T03:18:00Z,29.8672,-93.9310,0.0,2.8,359.0,3.8,'11111222,11111222,11111222' 
TCOON,ioos:station:TCOON:524:1,2019-11-01T04:18:00Z,29.8672,-93.9310,0.0,4.0,1.0,5.5,'11111222,11111222,11111222' 
TCOON,ioos:station:TCOON:524:1,2019-11-01T05:18:00Z,29.8672,-93.9310,0.0,3.1,3.0,3.8,'11111222,11111222,11111222' 
TCOON,ioos:station:TCOON:524:1,2019-11-01T06:18:00Z,29.8672,-93.9310,0.0,2.4,354.0,3.2,'11111222,11111222,11111222' 
TCOON,ioos:station:TCOON:524:1,2019-11-01T07:18:00Z,29.8672,-93.9310,0.0,2.7,360.0,3.8,'11111222,11144222,11111222' 
TCOON,ioos:station:TCOON:524:1,2019-11-01T08:18:00Z,29.8672,-93.9310,0.0,3.1,0.0,4.2,'11111222,11111222,11111222' 
TCOON,ioos:station:TCOON:524:1,2019-11-01T09:18:00Z,29.8672,-93.9310,0.0,3.1,357.0,3.8,'11111222,11111222,11111222' 
TCOON,ioos:station:TCOON:524:1,2019-11-01T10:18:00Z,29.8672,-93.9310,0.0,2.7,22.0,5.0,'11111222,11111222,11111222' 
TCOON,ioos:station:TCOON:524:1,2019-11-01T11:18:00Z,29.8672,-93.9310,0.0,3.4,14.0,4.6,'11111222,11111222,11111222' 
TCOON,ioos:station:TCOON:524:1,2019-11-01T12:18:00Z,29.8672,-93.9310,0.0,1.9,10.0,2.8,'11111222,11111222,11111222' 
TCOON,ioos:station:TCOON:524:1,2019-11-01T13:18:00Z,29.8672,-93.9310,0.0,2.3,10.0,4.1,'11111222,11111222,11111222' 
TCOON,ioos:station:TCOON:524:1,2019-11-01T14:18:00Z,29.8672,-93.9310,0.0,3.6,72.0,5.0,'11111222,11111222,11111222' 
TCOON,ioos:station:TCOON:524:1,2019-11-01T15:18:00Z,29.8672,-93.9310,0.0,3.2,80.0,4.5,'11111222,11111222,11111222' 
TCOON,ioos:station:TCOON:524:1,2019-11-01T16:18:00Z,29.8672,-93.9310,0.0,3.7,80.0,5.4,'11111222,11111222,11111222' 
TCOON,ioos:station:TCOON:524:1,2019-11-01T17:18:00Z,29.8672,-93.9310,0.0,1.7,38.0,4.6,'11111222,11111222,11111222' 
TCOON,ioos:station:TCOON:524:1,2019-11-01T18:18:00Z,29.8672,-93.9310,0.0,3.0,90.0,3.7,'11111222,11111222,11111222' 
TCOON,ioos:station:TCOON:524:1,2019-11-01T19:18:00Z,29.8672,-93.9310,0.0,1.5,59.0,3.3,'11111222,11111222,11111222' 
TCOON,ioos:station:TCOON:524:1,2019-11-01T20:18:00Z,29.8672,-93.9310,0.0,2.2,83.0,3.6,'11111222,11111222,11111222' 
TCOON,ioos:station:TCOON:524:1,2019-11-01T21:18:00Z,29.8672,-93.9310,0.0,1.9,100.0,2.9,'11111222,11111222,11111222' 
TCOON,ioos:station:TCOON:524:1,2019-11-01T22:18:00Z,29.8672,-93.9310,0.0,2.0,89.0,2.9,'11111222,11111222,11111222' 
TCOON,ioos:station:TCOON:524:1,2019-11-01T23:18:00Z,29.8672,-93.9310,0.0,0.4,86.0,1.4,'11111222,11111222,11111222' 
TCOON,ioos:station:TCOON:524:1,2019-11-02T00:18:00Z,29.8672,-93.9310,0.0,0.6,110.0,1.3,'11111222,11111222,11111222' 
TCOON,ioos:station:TCOON:524:1,2019-11-02T01:18:00Z,29.8672,-93.9310,0.0,0.5,137.0,0.8,'11111222,11111222,11111222' 
TCOON,ioos:station:TCOON:524:1,2019-11-02T02:18:00Z,29.8672,-93.9310,0.0,1.6,179.0,2.0,'11111222,11111222,11111222' 
TCOON,ioos:station:TCOON:524:1,2019-11-02T03:18:00Z,29.8672,-93.9310,0.0,1.3,184.0,1.6,'11111222,11111222,11111222' 
TCOON,ioos:station:TCOON:524:1,2019-11-02T04:18:00Z,29.8672,-93.9310,0.0,0.5,187.0,0.9,'11111222,11111222,11111222' 
TCOON,ioos:station:TCOON:524:1,2019-11-02T05:18:00Z,29.8672,-93.9310,0.0,1.4,323.0,1.6,'11111222,11111222,11111222' 
TCOON,ioos:station:TCOON:524:1,2019-11-02T06:18:00Z,29.8672,-93.9310,0.0,2.7,323.0,3.3,'11111222,11111222,11111222' 
TCOON,ioos:station:TCOON:524:1,2019-11-02T07:18:00Z,29.8672,-93.9310,0.0,2.4,330.0,3.2,'11111222,11111222,11111222' 
TCOON,ioos:station:TCOON:524:1,2019-11-02T08:18:00Z,29.8672,-93.9310,0.0,2.4,337.0,3.0,'11111222,11111222,11111222' 
TCOON,ioos:station:TCOON:524:1,2019-11-02T09:18:00Z,29.8672,-93.9310,0.0,3.1,348.0,3.5,'11111222,11111222,11111222' 
TCOON,ioos:station:TCOON:524:1,2019-11-02T10:18:00Z,29.8672,-93.9310,0.0,2.3,345.0,2.9,'11111222,11111222,11111222' 
TCOON,ioos:station:TCOON:524:1,2019-11-02T11:18:00Z,29.8672,-93.9310,0.0,3.0,358.0,3.9,'11111222,11111222,11111222' 
TCOON,ioos:station:TCOON:524:1,2019-11-02T12:18:00Z,29.8672,-93.9310,0.0,3.0,349.0,3.5,'11111222,11111222,11111222' 
TCOON,ioos:station:TCOON:524:1,2019-11-02T13:18:00Z,29.8672,-93.9310,0.0,3.7,360.0,5.0,'11111222,11144222,11111222' 
TCOON,ioos:station:TCOON:524:1,2019-11-02T14:18:00Z,29.8672,-93.9310,0.0,3.4,4.0,4.0,'11111222,11111222,11111222' 
TCOON,ioos:station:TCOON:524:1,2019-11-02T15:18:00Z,29.8672,-93.9310,0.0,3.9,358.0,4.8,'11111222,11111222,11111222' 
TCOON,ioos:station:TCOON:524:1,2019-11-02T16:18:00Z,29.8672,-93.9310,0.0,4.4,7.0,6.6,'11111222,11111222,11111222' 
TCOON,ioos:station:TCOON:524:1,2019-11-02T17:18:00Z,29.8672,-93.9310,0.0,4.5,359.0,5.7,'11111222,11111222,11111222' 
TCOON,ioos:station:TCOON:524:1,2019-11-02T18:18:00Z,29.8672,-93.9310,0.0,6.3,359.0,8.4,'11111222,11111222,11111222' 
TCOON,ioos:station:TCOON:524:1,2019-11-02T19:18:00Z,29.8672,-93.9310,0.0,7.1,356.0,8.7,'11111222,11111222,11111222' 
TCOON,ioos:station:TCOON:524:1,2019-11-02T20:18:00Z,29.8672,-93.9310,0.0,5.6,5.0,7.0,'11111222,11111222,11111222' 
TCOON,ioos:station:TCOON:524:1,2019-11-02T21:18:00Z,29.8672,-93.9310,0.0,5.0,358.0,6.9,'11111222,11111222,11111222' 
TCOON,ioos:station:TCOON:524:1,2019-11-02T22:18:00Z,29.8672,-93.9310,0.0,3.5,11.0,5.3,'11111222,11111222,11111222' 
TCOON,ioos:station:TCOON:524:1,2019-11-02T23:18:00Z,29.8672,-93.9310,0.0,2.6,7.0,3.4,'11111222,11111222,11111222' 
TCOON,ioos:station:TCOON:524:1,2019-11-03T00:18:00Z,29.8672,-93.9310,0.0,2.5,350.0,3.4,'11111222,11111222,11111222' 
TCOON,ioos:station:TCOON:524:1,2019-11-03T01:18:00Z,29.8672,-93.9310,0.0,1.9,5.0,2.7,'11111222,11111222,11111222' 
TCOON,ioos:station:TCOON:524:1,2019-11-03T02:18:00Z,29.8672,-93.9310,0.0,2.4,5.0,3.0,'11111222,11111222,11111222' 
TCOON,ioos:station:TCOON:524:1,2019-11-03T03:18:00Z,29.8672,-93.9310,0.0,1.6,7.0,2.2,'11111222,11111222,11111222' 
TCOON,ioos:station:TCOON:524:1,2019-11-03T04:18:00Z,29.8672,-93.9310,0.0,1.7,19.0,2.6,'11111222,11111222,11111222' 
TCOON,ioos:station:TCOON:524:1,2019-11-03T05:18:00Z,29.8672,-93.9310,0.0,1.4,19.0,1.7,'11111222,11111222,11111222' 
TCOON,ioos:station:TCOON:524:1,2019-11-03T06:18:00Z,29.8672,-93.9310,0.0,0.8,33.0,1.5,'11111222,11111222,11111222' 
TCOON,ioos:station:TCOON:524:1,2019-11-03T07:18:00Z,29.8672,-93.9310,0.0,0.4,46.0,1.2,'11111222,11111222,11111222' 
TCOON,ioos:station:TCOON:524:1,2019-11-03T08:18:00Z,29.8672,-93.9310,0.0,0.7,52.0,1.9,'11111222,11111222,11111222' 
TCOON,ioos:station:TCOON:524:1,2019-11-03T09:18:00Z,29.8672,-93.9310,0.0,1.2,35.0,2.2,'11111222,11111222,11111222' 
TCOON,ioos:station:TCOON:524:1,2019-11-03T10:18:00Z,29.8672,-93.9310,0.0,0.8,39.0,1.9,'11111222,11111222,11111222' 
TCOON,ioos:station:TCOON:524:1,2019-11-03T11:18:00Z,29.8672,-93.9310,0.0,0.7,34.0,1.8,'11111222,11111222,11111222' 
TCOON,ioos:station:TCOON:524:1,2019-11-03T12:18:00Z,29.8672,-93.9310,0.0,1.7,38.0,3.5,'11111222,11111222,11111222' 
TCOON,ioos:station:TCOON:524:1,2019-11-03T13:18:00Z,29.8672,-93.9310,0.0,3.7,70.0,5.3,'11111222,11111222,11111222' 
TCOON,ioos:station:TCOON:524:1,2019-11-03T14:18:00Z,29.8672,-93.9310,0.0,3.8,71.0,4.9,'11111222,11111222,11111222' 
TCOON,ioos:station:TCOON:524:1,2019-11-03T15:18:00Z,29.8672,-93.9310,0.0,2.8,61.0,4.8,'11111222,11111222,11111222' 
TCOON,ioos:station:TCOON:524:1,2019-11-03T16:18:00Z,29.8672,-93.9310,0.0,3.5,67.0,5.0,'11111222,11111222,11111222' 
TCOON,ioos:station:TCOON:524:1,2019-11-03T17:18:00Z,29.8672,-93.9310,0.0,2.8,58.0,4.8,'11111222,11111222,11111222' 
TCOON,ioos:station:TCOON:524:1,2019-11-03T18:18:00Z,29.8672,-93.9310,0.0,2.5,81.0,4.4,'11111222,11111222,11111222' 
TCOON,ioos:station:TCOON:524:1,2019-11-03T19:18:00Z,29.8672,-93.9310,0.0,2.5,93.0,3.5,'11111222,11111222,11111222' 
TCOON,ioos:station:TCOON:524:1,2019-11-03T20:18:00Z,29.8672,-93.9310,0.0,2.3,79.0,3.2,'11111222,11111222,11111222' 
TCOON,ioos:station:TCOON:524:1,2019-11-03T21:18:00Z,29.8672,-93.9310,0.0,2.0,104.0,2.8,'11111222,11111222,11111222' 
TCOON,ioos:station:TCOON:524:1,2019-11-03T22:18:00Z,29.8672,-93.9310,0.0,3.0,127.0,3.9,'11111222,11111222,11111222' 
TCOON,ioos:station:TCOON:524:1,2019-11-03T23:18:00Z,29.8672,-93.9310,0.0,1.5,125.0,2.1,'11111222,11111222,11111222' 
TCOON,ioos:station:TCOON:524:1,2019-11-04T00:18:00Z,29.8672,-93.9310,0.0,1.4,121.0,2.7,'11111222,11111222,11111222' 
TCOON,ioos:station:TCOON:524:1,2019-11-04T01:18:00Z,29.8672,-93.9310,0.0,1.6,114.0,2.6,'11111222,11111222,11111222' 
TCOON,ioos:station:TCOON:524:1,2019-11-04T02:18:00Z,29.8672,-93.9310,0.0,1.9,118.0,2.8,'11111222,11111222,11111222' 
TCOON,ioos:station:TCOON:524:1,2019-11-04T03:18:00Z,29.8672,-93.9310,0.0,0.7,133.0,1.3,'11111222,11111222,11111222' 
TCOON,ioos:station:TCOON:524:1,2019-11-04T04:18:00Z,29.8672,-93.9310,0.0,1.4,147.0,2.4,'11111222,11111222,11111222' 
TCOON,ioos:station:TCOON:524:1,2019-11-04T05:18:00Z,29.8672,-93.9310,0.0,0.7,135.0,1.5,'11111222,11111222,11111222' 
TCOON,ioos:station:TCOON:524:1,2019-11-04T15:54:00Z,29.8672,-93.9310,0.0,3.6,78.0,5.1,'11111222,11111222,11111222' 
TCOON,ioos:station:TCOON:524:1,2019-11-04T16:18:00Z,29.8672,-93.9310,0.0,2.9,73.0,4.4,'11111222,11111222,11111222' 
TCOON,ioos:station:TCOON:524:1,2019-11-04T17:18:00Z,29.8672,-93.9310,0.0,3.2,81.0,4.7,'11111222,11111222,11111222' 
TCOON,ioos:station:TCOON:524:1,2019-11-04T18:18:00Z,29.8672,-93.9310,0.0,3.6,95.0,5.4,'11111222,11111222,11111222' 
TCOON,ioos:station:TCOON:524:1,2019-11-04T19:24:00Z,29.8672,-93.9310,0.0,3.2,102.0,4.3,'11111222,11111222,11111222' 
TCOON,ioos:station:TCOON:524:1,2019-11-04T20:18:00Z,29.8672,-93.9310,0.0,3.8,102.0,5.9,'11111222,11111222,11111222' 
TCOON,ioos:station:TCOON:524:1,2019-11-04T21:18:00Z,29.8672,-93.9310,0.0,2.8,95.0,4.1,'11111222,11111222,11111222' 
TCOON,ioos:station:TCOON:524:1,2019-11-04T22:18:00Z,29.8672,-93.9310,0.0,2.7,101.0,4.2,'11111222,11111222,11111222' 
TCOON,ioos:station:TCOON:524:1,2019-11-04T23:18:00Z,29.8672,-93.9310,0.0,2.1,100.0,3.1,'11111222,11111222,11111222' 
TCOON,ioos:station:TCOON:524:1,2019-11-05T00:18:00Z,29.8672,-93.9310,0.0,1.6,85.0,3.0,'11111222,11111222,11111222' 
TCOON,ioos:station:TCOON:524:1,2019-11-05T01:18:00Z,29.8672,-93.9310,0.0,2.3,76.0,3.0,'11111222,11111222,11111222' 
TCOON,ioos:station:TCOON:524:1,2019-11-05T02:18:00Z,29.8672,-93.9310,0.0,2.7,106.0,3.8,'11111222,11111222,11111222' 
TCOON,ioos:station:TCOON:524:1,2019-11-05T03:18:00Z,29.8672,-93.9310,0.0,1.4,71.0,2.2,'11111222,11111222,11111222' 
TCOON,ioos:station:TCOON:524:1,2019-11-05T04:18:00Z,29.8672,-93.9310,0.0,1.1,51.0,1.8,'11111222,11111222,11111222' 
TCOON,ioos:station:TCOON:524:1,2019-11-05T05:18:00Z,29.8672,-93.9310,0.0,1.6,72.0,2.2,'11111222,11111222,11111222' 
TCOON,ioos:station:TCOON:524:1,2019-11-05T06:18:00Z,29.8672,-93.9310,0.0,1.9,88.0,2.4,'11111222,11111222,11111222' 
TCOON,ioos:station:TCOON:524:1,2019-11-05T07:18:00Z,29.8672,-93.9310,0.0,1.7,61.0,3.1,'11111222,11111222,11111222' 
TCOON,ioos:station:TCOON:524:1,2019-11-05T08:18:00Z,29.8672,-93.9310,0.0,2.5,76.0,3.3,'11111222,11111222,11111222' 
TCOON,ioos:station:TCOON:524:1,2019-11-05T09:18:00Z,29.8672,-93.9310,0.0,1.8,81.0,3.4,'11111222,11111222,11111222' 
TCOON,ioos:station:TCOON:524:1,2019-11-05T10:18:00Z,29.8672,-93.9310,0.0,1.4,55.0,2.3,'11111222,11111222,11111222' 
TCOON,ioos:station:TCOON:524:1,2019-11-05T11:18:00Z,29.8672,-93.9310,0.0,2.0,74.0,3.4,'11111222,11111222,11111222' 
TCOON,ioos:station:TCOON:524:1,2019-11-05T12:18:00Z,29.8672,-93.9310,0.0,1.6,83.0,2.7,'11111222,11111222,11111222' 
TCOON,ioos:station:TCOON:524:1,2019-11-05T13:18:00Z,29.8672,-93.9310,0.0,1.3,60.0,2.2,'11111222,11111222,11111222' 
TCOON,ioos:station:TCOON:524:1,2019-11-05T14:18:00Z,29.8672,-93.9310,0.0,1.6,61.0,2.4,'11111222,11111222,11111222' 
TCOON,ioos:station:TCOON:524:1,2019-11-05T15:18:00Z,29.8672,-93.9310,0.0,2.5,62.0,3.3,'11111222,11111222,11111222' 
TCOON,ioos:station:TCOON:524:1,2019-11-05T16:18:00Z,29.8672,-93.9310,0.0,2.0,77.0,3.1,'11111222,11111222,11111222' 
TCOON,ioos:station:TCOON:524:1,2019-11-05T17:18:00Z,29.8672,-93.9310,0.0,2.4,74.0,3.5,'11111222,11111222,11111222' 
TCOON,ioos:station:TCOON:524:1,2019-11-05T18:18:00Z,29.8672,-93.9310,0.0,2.8,64.0,4.1,'11111222,11111222,11111222' 
TCOON,ioos:station:TCOON:524:1,2019-11-05T19:18:00Z,29.8672,-93.9310,0.0,2.0,93.0,3.1,'11111222,11111222,11111222' 
TCOON,ioos:station:TCOON:524:1,2019-11-05T20:18:00Z,29.8672,-93.9310,0.0,3.1,90.0,3.8,'11111222,11111222,11111222' 
TCOON,ioos:station:TCOON:524:1,2019-11-05T21:18:00Z,29.8672,-93.9310,0.0,1.8,91.0,2.8,'11111222,11111222,11111222' 
TCOON,ioos:station:TCOON:524:1,2019-11-05T22:18:00Z,29.8672,-93.9310,0.0,2.1,111.0,3.8,'11111222,11111222,11111222' 
TCOON,ioos:station:TCOON:524:1,2019-11-05T23:18:00Z,29.8672,-93.9310,0.0,1.3,125.0,2.4,'11111222,11111222,11111222' 
TCOON,ioos:station:TCOON:524:1,2019-11-06T00:18:00Z,29.8672,-93.9310,0.0,0.3,138.0,1.0,'11111222,11111222,11111222' 
TCOON,ioos:station:TCOON:524:1,2019-11-06T01:18:00Z,29.8672,-93.9310,0.0,0.8,89.0,1.2,'11111222,11111222,11111222' 
TCOON,ioos:station:TCOON:524:1,2019-11-06T02:18:00Z,29.8672,-93.9310,0.0,0.5,39.0,0.9,'11111222,11111222,11111222' 
TCOON,ioos:station:TCOON:524:1,2019-11-06T03:18:00Z,29.8672,-93.9310,0.0,0.7,53.0,1.3,'11111222,11111222,11111222' 
TCOON,ioos:station:TCOON:524:1,2019-11-06T04:18:00Z,29.8672,-93.9310,0.0,1.3,60.0,2.1,'11111222,11111222,11111222' 
TCOON,ioos:station:TCOON:524:1,2019-11-06T05:18:00Z,29.8672,-93.9310,0.0,0.3,39.0,1.0,'11111222,11111222,11111222' 
TCOON,ioos:station:TCOON:524:1,2019-11-06T06:18:00Z,29.8672,-93.9310,0.0,0.2,35.0,1.0,'11111222,11111222,11111222' 
TCOON,ioos:station:TCOON:524:1,2019-11-06T07:18:00Z,29.8672,-93.9310,0.0,1.0,52.0,1.9,'11111222,11111222,11111222' 
TCOON,ioos:station:TCOON:524:1,2019-11-06T08:18:00Z,29.8672,-93.9310,0.0,2.1,74.0,3.1,'11111222,11111222,11111222' 
TCOON,ioos:station:TCOON:524:1,2019-11-06T09:18:00Z,29.8672,-93.9310,0.0,1.7,73.0,2.5,'11111222,11111222,11111222' 
TCOON,ioos:station:TCOON:524:1,2019-11-06T10:18:00Z,29.8672,-93.9310,0.0,2.0,67.0,3.7,'11111222,11111222,11111222' 
TCOON,ioos:station:TCOON:524:1,2019-11-06T11:18:00Z,29.8672,-93.9310,0.0,1.5,67.0,2.5,'11111222,11111222,11111222' 
TCOON,ioos:station:TCOON:524:1,2019-11-06T12:18:00Z,29.8672,-93.9310,0.0,0.3,28.0,1.4,'11111222,11111222,11111222' 
TCOON,ioos:station:TCOON:524:1,2019-11-06T13:24:00Z,29.8672,-93.9310,0.0,1.7,70.0,2.7,'11111222,11111222,11111222' 
TCOON,ioos:station:TCOON:524:1,2019-11-06T14:18:00Z,29.8672,-93.9310,0.0,3.0,92.0,4.6,'11111222,11111222,11111222' 
TCOON,ioos:station:TCOON:524:1,2019-11-06T15:18:00Z,29.8672,-93.9310,0.0,2.8,86.0,4.7,'11111222,11111222,11111222' 
TCOON,ioos:station:TCOON:524:1,2019-11-06T16:18:00Z,29.8672,-93.9310,0.0,2.9,74.0,4.0,'11111222,11111222,11111222' 
TCOON,ioos:station:TCOON:524:1,2019-11-06T17:18:00Z,29.8672,-93.9310,0.0,3.3,76.0,4.7,'11111222,11111222,11111222' 
TCOON,ioos:station:TCOON:524:1,2019-11-06T18:18:00Z,29.8672,-93.9310,0.0,2.4,58.0,4.3,'11111222,11111222,11111222' 
TCOON,ioos:station:TCOON:524:1,2019-11-06T19:18:00Z,29.8672,-93.9310,0.0,2.0,60.0,4.4,'11111222,11111222,11111222' 
TCOON,ioos:station:TCOON:524:1,2019-11-06T20:18:00Z,29.8672,-93.9310,0.0,2.9,69.0,4.5,'11111222,11111222,11111222' 
TCOON,ioos:station:TCOON:524:1,2019-11-06T21:18:00Z,29.8672,-93.9310,0.0,1.7,90.0,2.5,'11111222,11111222,11111222' 
TCOON,ioos:station:TCOON:524:1,2019-11-06T22:18:00Z,29.8672,-93.9310,0.0,1.7,108.0,2.2,'11111222,11111222,11111222' 
TCOON,ioos:station:TCOON:524:1,2019-11-06T23:18:00Z,29.8672,-93.9310,0.0,1.6,158.0,2.1,'11111222,11111222,11111222' 
TCOON,ioos:station:TCOON:524:1,2019-11-07T00:18:00Z,29.8672,-93.9310,0.0,1.2,144.0,2.0,'11111222,11111222,11111222' 
TCOON,ioos:station:TCOON:524:1,2019-11-07T01:18:00Z,29.8672,-93.9310,0.0,1.5,136.0,2.2,'11111222,11111222,11111222' 
TCOON,ioos:station:TCOON:524:1,2019-11-07T02:18:00Z,29.8672,-93.9310,0.0,1.7,105.0,2.6,'11111222,11111222,11111222' 
TCOON,ioos:station:TCOON:524:1,2019-11-07T03:18:00Z,29.8672,-93.9310,0.0,1.7,117.0,2.8,'11111222,11111222,11111222' 
TCOON,ioos:station:TCOON:524:1,2019-11-07T04:18:00Z,29.8672,-93.9310,0.0,1.6,108.0,2.8,'11111222,11111222,11111222' 
TCOON,ioos:station:TCOON:524:1,2019-11-07T05:18:00Z,29.8672,-93.9310,0.0,1.8,106.0,2.5,'11111222,11111222,11111222' 
TCOON,ioos:station:TCOON:524:1,2019-11-07T06:18:00Z,29.8672,-93.9310,0.0,1.0,165.0,1.3,'11111222,11111222,11111222' 
TCOON,ioos:station:TCOON:524:1,2019-11-07T07:24:00Z,29.8672,-93.9310,0.0,0.5,343.0,0.8,'11111222,11111222,11111222' 
TCOON,ioos:station:TCOON:524:1,2019-11-07T08:18:00Z,29.8672,-93.9310,0.0,0.8,62.0,1.3,'11111222,11111222,11111222' 
TCOON,ioos:station:TCOON:524:1,2019-11-07T09:18:00Z,29.8672,-93.9310,0.0,0.7,43.0,1.5,'11111222,11111222,11111222' 
TCOON,ioos:station:TCOON:524:1,2019-11-07T10:18:00Z,29.8672,-93.9310,0.0,0.8,26.0,1.7,'11111222,11111222,11111222' 
TCOON,ioos:station:TCOON:524:1,2019-11-07T11:18:00Z,29.8672,-93.9310,0.0,0.6,50.0,1.1,'11111222,11111222,11111222' 
TCOON,ioos:station:TCOON:524:1,2019-11-07T12:18:00Z,29.8672,-93.9310,0.0,1.6,69.0,2.2,'11111222,11111222,11111222' 
TCOON,ioos:station:TCOON:524:1,2019-11-07T13:18:00Z,29.8672,-93.9310,0.0,0.6,57.0,1.2,'11111222,11111222,11111222' 
TCOON,ioos:station:TCOON:524:1,2019-11-07T14:18:00Z,29.8672,-93.9310,0.0,1.3,62.0,2.2,'11111222,11111222,11111222' 
TCOON,ioos:station:TCOON:524:1,2019-11-07T15:18:00Z,29.8672,-93.9310,0.0,1.1,60.0,1.7,'11111222,11111222,11111222' 
TCOON,ioos:station:TCOON:524:1,2019-11-07T16:18:00Z,29.8672,-93.9310,0.0,2.0,16.0,2.5,'11111222,11111222,11111222' 
TCOON,ioos:station:TCOON:524:1,2019-11-07T17:18:00Z,29.8672,-93.9310,0.0,2.4,90.0,3.2,'11111222,11111222,11111222' 
TCOON,ioos:station:TCOON:524:1,2019-11-07T18:18:00Z,29.8672,-93.9310,0.0,2.0,69.0,3.1,'11111222,11111222,11111222' 
TCOON,ioos:station:TCOON:524:1,2019-11-07T19:18:00Z,29.8672,-93.9310,0.0,5.8,1.0,7.6,'11111222,11111222,11111222' 
TCOON,ioos:station:TCOON:524:1,2019-11-07T20:18:00Z,29.8672,-93.9310,0.0,5.1,1.0,6.2,'11111222,11111222,11111222' 
TCOON,ioos:station:TCOON:524:1,2019-11-07T21:18:00Z,29.8672,-93.9310,0.0,5.0,358.0,6.6,'11111222,11111222,11111222' 
TCOON,ioos:station:TCOON:524:1,2019-11-07T22:18:00Z,29.8672,-93.9310,0.0,3.1,344.0,4.0,'11111222,11111222,11111222' 
TCOON,ioos:station:TCOON:524:1,2019-11-07T23:18:00Z,29.8672,-93.9310,0.0,2.8,355.0,3.5,'11111222,11111222,11111222' 
TCOON,ioos:station:TCOON:524:1,2019-11-08T00:18:00Z,29.8672,-93.9310,0.0,4.4,336.0,5.4,'11111222,11111222,11111222' 
TCOON,ioos:station:TCOON:524:1,2019-11-08T01:18:00Z,29.8672,-93.9310,0.0,3.5,343.0,4.4,'11111222,11111222,11111222' 
TCOON,ioos:station:TCOON:524:1,2019-11-08T02:18:00Z,29.8672,-93.9310,0.0,3.8,342.0,5.3,'11111222,11111222,11111222' 
TCOON,ioos:station:TCOON:524:1,2019-11-08T03:18:00Z,29.8672,-93.9310,0.0,3.6,351.0,4.7,'11111222,11111222,11111222' 
TCOON,ioos:station:TCOON:524:1,2019-11-08T04:18:00Z,29.8672,-93.9310,0.0,4.9,2.0,6.4,'11111222,11111222,11111222' 
TCOON,ioos:station:TCOON:524:1,2019-11-08T05:18:00Z,29.8672,-93.9310,0.0,6.0,344.0,8.4,'11111222,11111222,11111222' 
TCOON,ioos:station:TCOON:524:1,2019-11-08T06:18:00Z,29.8672,-93.9310,0.0,4.2,340.0,6.4,'11111222,11111222,11111222' 
TCOON,ioos:station:TCOON:524:1,2019-11-08T07:18:00Z,29.8672,-93.9310,0.0,5.5,350.0,7.9,'11111222,11111222,11111222' 
TCOON,ioos:station:TCOON:524:1,2019-11-08T08:18:00Z,29.8672,-93.9310,0.0,6.8,351.0,9.7,'11111222,11111222,11111222' 
TCOON,ioos:station:TCOON:524:1,2019-11-08T09:18:00Z,29.8672,-93.9310,0.0,7.7,5.0,9.8,'11111222,11111222,11111222' 
TCOON,ioos:station:TCOON:524:1,2019-11-08T10:18:00Z,29.8672,-93.9310,0.0,7.7,0.0,10.9,'11111222,11111222,11111222' 
TCOON,ioos:station:TCOON:524:1,2019-11-08T11:18:00Z,29.8672,-93.9310,0.0,6.7,3.0,10.0,'11111222,11111222,11111222' 
TCOON,ioos:station:TCOON:524:1,2019-11-08T12:18:00Z,29.8672,-93.9310,0.0,5.6,5.0,6.9,'11111222,11111222,11111222' 
TCOON,ioos:station:TCOON:524:1,2019-11-08T13:18:00Z,29.8672,-93.9310,0.0,5.4,358.0,7.4,'11111222,11111222,11111222' 
TCOON,ioos:station:TCOON:524:1,2019-11-08T14:18:00Z,29.8672,-93.9310,0.0,5.6,6.0,9.3,'11111222,11111222,11111222' 
TCOON,ioos:station:TCOON:524:1,2019-11-08T15:18:00Z,29.8672,-93.9310,0.0,6.7,348.0,8.6,'11111222,11111222,11111222' 
TCOON,ioos:station:TCOON:524:1,2019-11-08T16:18:00Z,29.8672,-93.9310,0.0,6.3,346.0,7.5,'11111222,11111222,11111222' 
TCOON,ioos:station:TCOON:524:1,2019-11-08T17:18:00Z,29.8672,-93.9310,0.0,7.0,5.0,8.5,'11111222,11111222,11111222' 
TCOON,ioos:station:TCOON:524:1,2019-11-08T18:18:00Z,29.8672,-93.9310,0.0,6.3,4.0,8.5,'11111222,11111222,11111222' 
TCOON,ioos:station:TCOON:524:1,2019-11-08T19:18:00Z,29.8672,-93.9310,0.0,6.0,351.0,7.4,'11111222,11111222,11111222' 
TCOON,ioos:station:TCOON:524:1,2019-11-08T20:18:00Z,29.8672,-93.9310,0.0,5.5,354.0,7.9,'11111222,11111222,11111222' 
TCOON,ioos:station:TCOON:524:1,2019-11-08T21:18:00Z,29.8672,-93.9310,0.0,6.3,344.0,9.1,'11111222,11111222,11111222' 
TCOON,ioos:station:TCOON:524:1,2019-11-08T22:18:00Z,29.8672,-93.9310,0.0,5.3,358.0,8.4,'11111222,11111222,11111222' 
TCOON,ioos:station:TCOON:524:1,2019-11-08T23:18:00Z,29.8672,-93.9310,0.0,5.8,356.0,7.1,'11111222,11111222,11111222' 
TCOON,ioos:station:TCOON:524:1,2019-11-09T00:18:00Z,29.8672,-93.9310,0.0,5.3,355.0,6.9,'11111222,11111222,11111222' 
TCOON,ioos:station:TCOON:524:1,2019-11-09T01:18:00Z,29.8672,-93.9310,0.0,7.2,2.0,9.2,'11111222,11111222,11111222' 
TCOON,ioos:station:TCOON:524:1,2019-11-09T02:18:00Z,29.8672,-93.9310,0.0,4.2,10.0,6.0,'11111222,11111222,11111222' 
TCOON,ioos:station:TCOON:524:1,2019-11-09T03:18:00Z,29.8672,-93.9310,0.0,5.1,14.0,6.8,'11111222,11111222,11111222' 
TCOON,ioos:station:TCOON:524:1,2019-11-09T04:18:00Z,29.8672,-93.9310,0.0,5.2,18.0,7.5,'11111222,11111222,11111222' 
TCOON,ioos:station:TCOON:524:1,2019-11-09T05:18:00Z,29.8672,-93.9310,0.0,4.2,13.0,6.8,'11111222,11111222,11111222' 
TCOON,ioos:station:TCOON:524:1,2019-11-09T06:18:00Z,29.8672,-93.9310,0.0,4.6,17.0,6.5,'11111222,11111222,11111222' 
TCOON,ioos:station:TCOON:524:1,2019-11-09T07:18:00Z,29.8672,-93.9310,0.0,4.5,17.0,7.4,'11111222,11111222,11111222' 
TCOON,ioos:station:TCOON:524:1,2019-11-09T08:18:00Z,29.8672,-93.9310,0.0,2.0,34.0,5.4,'11111222,11111222,11111222' 
TCOON,ioos:station:TCOON:524:1,2019-11-09T09:18:00Z,29.8672,-93.9310,0.0,3.2,17.0,5.2,'11111222,11111222,11111222' 
TCOON,ioos:station:TCOON:524:1,2019-11-09T10:18:00Z,29.8672,-93.9310,0.0,1.5,36.0,4.8,'11111222,11111222,11111222' 
TCOON,ioos:station:TCOON:524:1,2019-11-09T11:18:00Z,29.8672,-93.9310,0.0,1.6,19.0,3.5,'11111222,11111222,11111222' 
TCOON,ioos:station:TCOON:524:1,2019-11-09T12:18:00Z,29.8672,-93.9310,0.0,3.3,359.0,4.0,'11111222,11111222,11111222' 
TCOON,ioos:station:TCOON:524:1,2019-11-09T13:18:00Z,29.8672,-93.9310,0.0,3.5,12.0,5.4,'11111222,11111222,11111222' 
TCOON,ioos:station:TCOON:524:1,2019-11-09T14:18:00Z,29.8672,-93.9310,0.0,1.5,47.0,2.8,'11111222,11111222,11111222' 
TCOON,ioos:station:TCOON:524:1,2019-11-09T15:18:00Z,29.8672,-93.9310,0.0,2.3,50.0,3.9,'11111222,11111222,11111222' 
TCOON,ioos:station:TCOON:524:1,2019-11-09T16:18:00Z,29.8672,-93.9310,0.0,2.2,75.0,3.9,'11111222,11111222,11111222' 
TCOON,ioos:station:TCOON:524:1,2019-11-09T17:18:00Z,29.8672,-93.9310,0.0,2.1,92.0,3.0,'11111222,11111222,11111222' 
TCOON,ioos:station:TCOON:524:1,2019-11-09T18:18:00Z,29.8672,-93.9310,0.0,2.0,98.0,3.6,'11111222,11111222,11111222' 
TCOON,ioos:station:TCOON:524:1,2019-11-09T19:18:00Z,29.8672,-93.9310,0.0,2.6,93.0,3.6,'11111222,11111222,11111222' 
TCOON,ioos:station:TCOON:524:1,2019-11-09T20:18:00Z,29.8672,-93.9310,0.0,2.6,87.0,3.2,'11111222,11111222,11111222' 
TCOON,ioos:station:TCOON:524:1,2019-11-09T21:18:00Z,29.8672,-93.9310,0.0,1.8,86.0,2.5,'11111222,11111222,11111222' 